Temp
3 3 2 2 1 1 1 1 1 0 0 -0 -0 -0 -0 -1 -1 -1 -2 -3 -2 -2 -2 -2 -2 -2 -3 -2 -2 -1 -1 0 1 2 2 2 4 5 7 8 9 8 9
4 3 3 2 1 1 1 1 0 -0 -0 -0 -1 -1 -1 -1 -1 -1 -2 -2 -3 -3 -3 -3 -3 -3 -3 -3 -3 -2 -2 -1 -1 0 0 1 2 3 4 6 8 9 8
3 3 2 2 1 1 1 1 0 -0 -1 -1 -1 -1 -1 -1 -1 -2 -2 -2 -2 -3 -3 -3 -4 -4 -4 -4 -4 -3 -3 -2 -1 -1 -0 0 1 2 3 4 6 7 8
3 2 2 2 2 1 1 0 -0 -1 -1 -1 -1 -1 -2 -2 -2 -2 -3 -4 -4 -4 -4 -4 -4 -4 -4 -4 -4 -3 -2 -2 -2 -2 -1 -1 0 1 3 3 4 5 6
2 2 2 2 2 1 0 0 -1 -1 -1 -1 -1 -2 -2 -2 -3 -3 -4 -4 -4 -4 -4 -4 -4 -4 -4 -4 -3 -3 -3 -2 -2 -2 -1 -1 0 1 1 2 3 4 5
1 2 2 0 1 1 0 0 -0 -1 -2 -2 -2 -3 -3 -3 -3 -3 -5 -5 -5 -5 -6 -5 -5 -4 -4 -5 -4 -4 -3 -2 -1 -2 -1 -1 -0 0 1 1 2 3 4
0 -0 -1 -0 -1 -1 -0 -0 -1 -1 -2 -3 -3 -3 -3 -3 -3 -3 -5 -5 -6 -6 -6 -6 -6 -6 -5 -4 -4 -4 -4 -3 -3 -3 -1 -1 -1 -1 -0 -0 0 0 1
-0 -1 -0 -1 -2 -3 -3 -2 -2 -2 -2 -3 -3 -4 -4 -3 -4 -5 -6 -6 -6 -5 -5 -5 -6 -6 -5 -6 -5 -4 -4 -4 -4 -3 -3 -2 -2 -2 -2 -2 -1 -1 0
-1 -0 -0 -1 -3 -4 -5 -4 -4 -3 -3 -4 -5 -5 -5 -4 -5 -6 -7 -7 -7 -6 -6 -6 -6 -6 -6 -5 -4 -4 -5 -5 -4 -4 -4 -3 -3 -3 -3 -3 -2 -1 -0
-2 -2 -2 -3 -4 -5 -6 -6 -6 -5 -4 -5 -6 -6 -6 -6 -6 -7 -7 -7 -7 -6 -6 -6 -6 -6 -5 -5 -5 -5 -5 -5 -4 -4 -4 -4 -4 -4 -3 -3 -2 -1 -1
-3 -4 -5 -5 -5 -6 -7 -7 -7 -7 -7 -7 -7 -8 -7 -7 -7 -7 -7 -7 -7 -6 -6 -6 -6 -6 -6 -5 -5 -5 -5 -4 -4 -4 -5 -5 -5 -4 -4 -4 -3 -3 -2
-6 -6 -7 -7 -8 -8 -8 -8 -8 -8 -8 -8 -9 -9 -8 -8 -7 -7 -8 -7 -7 -7 -6 -6 -7 -7 -6 -6 -5 -5 -5 -5 -5 -5 -6 -6 -5 -5 -5 -5 -5 -4 -4
-8 -8 -9 -9 -9 -10 -10 -10 -10 -9 -9 -10 -10 -10 -10 -9 -9 -9 -8 -8 -7 -7 -7 -7 -7 -6 -6 -5 -6 -6 -6 -6 -6 -6 -6 -6 -6 -6 -6 -6 -5 -5 -4
-9 -11 -11 -11 -12 -12 -11 -11 -10 -10 -11 -11 -11 -10 -11 -10 -10 -10 -10 -9 -9 -9 -8 -8 -7 -7 -7 -6 -6 -6 -7 -7 -7 -7 -7 -7 -7 -7 -6 -6 -6 -5 -4
-10 -11 -12 -12 -11 -11 -11 -11 -11 -11 -10 -11 -11 -12 -12 -12 -11 -11 -10 -10 -10 -9 -9 -8 -8 -8 -8 -8 -8 -8 -8 -8 -8 -7 -8 -7 -7 -7 -7 -6 -6 -6 -5
-12 -12 -12 -12 -12 -12 -12 -13 -13 -12 -12 -12 -11 -11 -11 -11 -11 -10 -9 -9 -8 -8 -7 -7 -7 -7 -7 -7 -8 -8 -8 -8 -8 -8 -8 -8 -8 -8 -8 -7 -7 -6 -5
-11 -12 -13 -13 -13 -13 -13 -13 -14 -13 -13 -13 -12 -11 -11 -10 -10 -10 -9 -9 -9 -8 -8 -8 -9 -8 -8 -8 -9 -9 -9 -9 -9 -9 -9 -9 -9 -9 -8 -9 -8 -7 -6
-13 -14 -13 -14 -14 -14 -14 -15 -15 -15 -15 -14 -13 -14 -14 -13 -12 -11 -11 -10 -10 -10 -10 -10 -10 -10 -10 -10 -10 -10 -10 -10 -10 -10 -10 -10 -10 -10 -9 -9 -8 -8 -7
-14 -14 -15 -15 -15 -15 -16 -16 -16 -16 -16 -16 -16 -15 -15 -15 -14 -13 -12 -12 -12 -12 -12 -12 -12 -12 -12 -12 -12 -12 -12 -12 -11 -11 -11 -11 -10 -10 -10 -10 -9 -8 -7
-15 -15 -15 -15 -16 -16 -16 -16 -17 -17 -17 -17 -17 -16 -15 -15 -16 -15 -15 -15 -14 -14 -14 -14 -14 -13 -13 -13 -13 -13 -13 -12 -12 -12 -11 -11 -11 -11 -11 -10 -9 -9 -8
-16 -16 -16 -16 -16 -16 -17 -17 -17 -17 -17 -17 -17 -16 -17 -16 -16 -16 -15 -15 -15 -15 -15 -15 -15 -14 -14 -14 -14 -14 -13 -13 -13 -13 -12 -12 -12 -12 -11 -11 -10 -10 -9
-16 -16 -16 -16 -16 -17 -17 -17 -17 -17 -17 -18 -18 -17 -16 -15 -15 -15 -15 -15 -15 -15 -15 -15 -15 -15 -14 -14 -14 -14 -14 -14 -14 -13 -13 -13 -13 -13 -12 -11 -11 -10 -10
-17 -17 -17 -17 -17 -17 -17 -17 -17 -17 -18 -18 -18 -18 -18 -18 -18 -17 -17 -17 -17 -16 -16 -16 -16 -16 -16 -15 -15 -15 -15 -15 -14 -14 -14 -14 -14 -13 -13 -12 -11 -11 -10
-17 -17 -17 -17 -17 -17 -17 -17 -17 -17 -17 -17 -17 -17 -17 -17 -17 -17 -17 -17 -17 -17 -17 -17 -17 -17 -16 -16 -16 -16 -16 -15 -15 -15 -15 -15 -14 -14 -13 -12 -12 -11 -10
-16 -16 -16 -16 -17 -17 -18 -18 -18 -18 -18 -18 -18 -18 -18 -18 -18 -18 -18 -18 -17 -17 -17 -17 -17 -17 -17 -17 -17 -16 -16 -15 -15 -16 -16 -15 -15 -15 -14 -13 -13 -12 -11
-16 -16 -17 -18 -19 -19 -19 -19 -19 -19 -19 -19 -19 -19 -19 -19 -18 -18 -18 -18 -18 -18 -18 -18 -17 -17 -17 -17 -17 -17 -16 -16 -15 -14 -14 -15 -15 -15 -14 -14 -13 -13 -12
Height
861 865 869 871 874 876 878 881 883 884 885 886 886 886 885 885 885 884 883 883 882 880 878 877 878 878 877 876 876 875 875 874 870 861 860 852 854 853 844 844 840 840 838
854 859 862 866 869 872 874 877 880 882 882 883 884 885 885 884 884 884 883 882 881 879 878 877 877 877 875 874 873 874 873 871 869 860 858 857 849 848 845 833 838 838 835
847 851 855 859 862 865 868 871 874 877 879 880 881 882 882 883 883 882 882 881 880 878 876 876 876 875 875 873 872 871 871 870 869 867 861 855 849 848 838 836 839 835 832
837 842 846 849 853 857 861 865 869 872 874 876 877 878 879 880 881 881 881 880 879 878 877 876 874 873 872 871 870 869 869 868 867 864 857 852 850 843 841 837 834 831 825
828 833 834 840 846 850 855 858 863 865 868 870 871 873 875 876 876 877 878 877 877 877 877 875 874 872 870 869 868 866 865 864 863 861 857 852 847 843 841 838 835 830 824
816 819 826 831 836 840 845 850 855 859 861 864 866 869 870 871 871 872 873 874 875 875 876 875 874 869 867 867 865 864 864 862 860 857 854 851 848 846 841 839 834 826 821
805 811 816 821 825 829 835 841 845 849 854 857 860 862 863 864 865 866 867 870 869 871 872 873 872 871 865 862 862 861 860 859 858 856 853 851 846 843 839 835 833 830 826
796 801 805 809 814 820 825 829 835 840 845 849 853 856 858 859 860 861 862 862 862 862 863 864 866 865 864 861 860 859 856 855 854 853 850 849 847 842 839 835 830 826 820
787 790 794 799 805 810 815 820 826 831 837 842 848 851 854 856 857 859 859 858 856 855 855 855 858 859 858 856 855 855 853 850 849 847 845 842 840 837 835 832 828 822 811
783 787 791 795 798 802 808 812 818 823 828 834 839 843 848 852 852 852 855 855 854 853 850 850 851 853 854 851 847 849 847 845 841 838 837 835 832 830 829 827 822 817 814
780 784 789 793 795 798 803 807 813 820 825 830 834 837 841 844 848 849 849 847 848 848 847 844 843 846 847 846 843 841 840 840 838 833 830 827 825 823 821 821 817 815 811
775 778 784 789 792 797 801 805 809 814 818 824 828 831 834 838 841 841 844 845 843 842 842 838 837 838 840 838 837 834 834 833 831 827 826 822 820 818 813 812 810 807 806
772 776 781 785 789 794 797 801 807 811 814 818 823 826 828 831 832 835 838 839 840 839 836 835 832 828 831 832 830 828 827 827 825 825 820 818 815 812 809 804 802 797 793
774 778 780 783 789 794 799 804 808 811 815 817 820 821 822 825 828 828 830 830 831 829 830 827 825 823 823 823 821 821 820 823 820 817 814 812 811 807 804 800 796 792 786
775 778 781 783 785 792 797 804 809 810 813 814 814 817 819 819 821 823 823 824 820 822 824 820 818 816 813 812 813 814 815 815 813 812 806 807 807 802 798 795 791 788 784
780 783 784 785 788 790 795 800 804 808 810 812 815 814 814 814 814 815 815 815 814 815 813 811 810 807 806 805 805 807 808 807 807 804 800 801 800 796 792 788 785 782 777
780 785 788 789 792 793 789 796 801 803 803 807 809 809 809 810 808 807 807 807 807 808 803 802 801 798 797 798 798 798 799 800 801 796 794 793 793 788 785 781 779 777 771
786 786 784 788 792 793 791 795 799 800 801 799 802 802 800 802 800 800 801 801 798 798 795 793 792 791 790 790 790 790 791 790 791 788 786 784 782 780 777 774 773 770 766
785 788 786 789 791 790 792 794 795 794 795 795 793 795 796 793 792 792 795 792 789 787 786 785 784 782 782 782 781 781 782 780 780 778 776 774 773 773 770 769 766 763 761
785 786 789 786 786 789 791 790 790 791 791 790 789 788 787 785 784 784 784 782 781 778 777 776 775 774 774 772 771 771 771 770 768 767 766 766 765 765 762 760 757 755 754
783 783 786 786 786 786 786 786 785 786 784 783 782 780 780 778 776 774 772 771 768 766 766 765 764 763 762 760 760 760 759 758 757 757 756 756 756 755 754 752 749 748 746
783 785 785 783 782 781 781 781 779 778 777 775 771 769 772 770 766 763 761 758 756 755 754 753 751 749 748 747 748 747 746 745 745 745 745 745 745 745 744 743 740 739 737
781 782 781 776 776 776 775 774 773 771 768 765 762 760 758 755 752 749 746 743 742 741 740 739 737 734 733 733 733 733 732 731 732 733 733 733 733 734 734 732 731 729 727
776 777 774 772 771 769 767 765 762 761 759 755 752 749 746 743 739 735 731 729 727 724 723 721 719 717 716 715 715 716 715 716 718 719 720 721 721 722 722 721 720 719 718
771 770 768 765 763 760 758 756 753 751 747 744 740 736 731 728 723 718 714 712 709 707 703 702 701 697 696 695 696 698 699 701 704 705 707 708 708 710 710 710 710 709 709
764 763 760 758 755 753 750 746 743 739 735 730 726 720 716 711 704 700 696 693 690 687 684 683 680 679 678 679 679 679 682 685 688 691 693 693 694 696 698 699 699 699 699
Wind_Speed
32 29 26 24 21 19 17 14 12 9 6 3 1 3 4 5 6 8 7 7 8 9 9 9 9 10 10 8 8 8 9 11 14 20 19 28 30 27 24 25 24 25 25
36 33 31 28 26 24 22 18 16 13 10 7 4 3 2 3 5 5 5 6 8 9 9 8 9 10 11 10 10 10 10 11 15 22 23 25 23 26 26 24 27 28 27
40 38 35 34 32 30 27 23 21 18 15 12 9 6 4 3 4 4 4 5 7 8 9 9 10 9 10 10 11 10 11 11 12 15 21 20 22 24 23 27 25 23 24
45 43 42 41 39 36 31 27 24 21 18 15 12 9 8 6 5 4 4 6 7 8 10 11 11 11 11 12 11 10 10 13 13 15 20 20 20 22 20 20 23 26 30
46 46 49 46 42 39 35 31 28 25 22 18 16 14 12 9 7 5 5 6 8 10 11 11 11 12 11 10 12 13 13 13 14 13 15 20 20 20 21 24 23 26 25
47 50 48 46 45 44 40 36 32 29 27 23 22 19 16 12 8 7 6 7 8 10 11 12 13 11 10 13 12 11 12 15 15 15 17 17 20 21 21 20 23 22 14
43 44 45 45 46 47 44 41 38 36 32 29 25 23 20 16 12 10 8 8 9 10 11 12 13 11 12 12 12 12 12 14 15 18 18 17 23 24 24 24 22 23 25
38 40 41 43 45 44 43 44 43 40 37 32 29 25 21 18 14 12 10 11 11 11 11 11 13 14 15 14 14 15 14 16 15 15 16 19 20 22 24 26 28 31 31
34 38 39 40 40 41 41 42 41 42 39 34 29 24 22 20 16 12 11 11 11 11 11 11 12 13 14 14 14 17 19 17 14 16 19 22 23 24 24 26 25 24 25
29 30 31 32 35 38 38 37 37 39 37 32 26 23 20 19 16 12 11 11 11 11 10 11 12 14 15 13 13 18 22 20 20 22 22 23 21 22 20 19 23 24 23
16 17 20 23 27 30 32 33 35 32 24 26 22 17 17 17 17 16 14 12 12 12 12 11 11 12 15 16 17 18 20 25 26 24 24 22 23 23 20 20 21 24 27
8 10 13 15 18 21 24 26 27 28 26 21 19 17 17 17 17 16 14 15 14 16 17 15 14 16 18 19 20 21 22 22 22 21 23 24 24 24 24 24 26 29 32
9 10 10 12 13 15 19 22 24 23 20 17 14 12 13 13 13 11 13 14 16 18 18 19 20 20 22 24 22 21 18 17 20 24 24 23 22 23 29 29 30 28 30
12 12 12 12 12 13 15 17 18 17 15 12 10 10 10 9 10 11 13 15 18 17 19 22 22 20 22 24 23 19 18 20 20 21 23 24 27 23 26 24 25 26 28
17 17 18 17 18 17 14 12 11 11 13 15 14 11 11 13 16 16 16 16 15 18 21 23 25 23 23 18 16 18 19 18 18 22 22 23 24 28 22 18 24 28 27
17 16 16 16 15 13 12 10 9 8 9 12 14 17 17 20 18 19 21 23 24 24 26 25 25 23 23 23 22 20 20 19 20 19 21 26 27 23 25 22 22 25 24
14 14 11 10 10 10 9 8 8 10 12 11 14 16 18 21 22 23 24 25 27 28 28 24 23 22 23 23 23 20 21 21 22 22 22 23 28 27 22 22 24 21 26
10 9 9 8 8 6 5 7 9 11 14 16 16 15 16 19 22 24 25 27 28 26 26 25 24 23 20 21 22 22 23 22 23 24 25 27 27 23 24 24 23 23 22
6 6 4 4 4 4 7 8 10 12 15 19 20 20 18 19 21 23 24 25 23 22 22 24 24 22 21 21 23 24 26 28 27 26 26 26 23 22 25 27 27 28 28
4 4 3 3 4 6 8 10 12 16 18 20 22 22 21 22 24 26 25 25 27 26 25 27 28 29 29 29 29 30 30 29 27 27 28 28 26 26 27 27 25 25 25
3 2 2 5 8 9 12 14 17 20 23 25 28 26 20 23 28 29 30 29 27 27 28 28 28 29 29 29 29 29 29 29 28 28 29 28 27 27 27 28 27 27 26
4 6 7 9 10 13 16 19 21 23 25 27 28 29 26 28 28 30 30 31 31 31 31 32 33 34 35 34 34 34 34 34 32 31 31 31 30 30 29 29 28 28 27
9 12 14 14 16 18 18 21 24 26 27 27 27 26 25 27 29 32 33 35 35 37 38 38 38 39 39 38 37 37 38 37 36 34 33 32 31 30 29 28 28 27 26
14 17 18 19 21 21 23 26 27 26 27 28 28 29 31 32 34 36 37 37 37 40 40 40 41 43 43 42 40 39 40 40 38 37 37 35 33 31 30 29 28 28 28
17 20 22 22 23 24 25 25 27 29 30 32 33 34 35 36 38 40 41 41 43 43 44 43 43 45 47 50 49 44 42 40 39 37 35 34 34 32 32 31 30 29 28
14 15 17 18 23 27 27 29 31 32 33 34 35 37 38 39 41 42 42 43 43 43 44 43 45 47 49 48 47 48 46 45 44 42 40 37 37 35 33 32 33 32 30
Wind_Direction
215 214 214 213 212 212 213 213 214 214 216 224 294 2 8 12 18 19 30 33 33 32 29 16 6 356 349 351 347 341 324 312 297 308 303 311 308 306 322 321 316 311 306
218 218 218 218 217 217 217 216 217 219 222 225 234 257 305 338 347 358 5 4 10 16 18 10 356 346 344 343 343 335 330 327 314 309 310 311 315 313 308 324 323 308 304
220 221 220 221 220 221 220 217 218 218 220 222 227 238 256 279 301 317 326 340 346 352 353 347 342 340 336 335 335 332 329 325 313 301 304 314 317 319 321 315 315 319 314
222 223 224 224 224 224 223 221 221 221 223 224 229 236 247 258 271 278 302 323 329 333 332 330 330 328 324 327 329 327 325 321 320 317 315 319 320 328 329 329 323 320 318
224 224 227 229 229 228 226 223 223 224 226 227 229 232 236 242 249 246 280 305 315 316 319 317 315 317 315 316 320 319 320 320 318 315 313 318 324 328 327 326 313 315 318
226 227 229 229 230 230 228 226 225 226 226 224 226 227 230 235 236 243 255 273 285 295 300 302 305 309 311 310 311 311 309 310 311 310 308 306 313 314 318 319 327 322 317
228 228 229 230 231 232 231 227 225 224 224 224 225 226 229 233 233 234 236 249 262 273 285 292 297 294 298 305 306 308 305 305 302 308 303 304 312 317 326 326 316 312 305
227 228 230 230 232 229 227 226 226 225 224 223 225 227 230 235 234 229 227 238 249 265 276 283 287 292 302 303 302 301 303 305 303 300 295 297 299 304 312 312 311 304 298
227 229 229 230 229 225 222 221 221 223 223 223 226 228 233 237 235 232 235 242 250 257 268 269 282 282 292 297 298 300 303 302 301 298 297 298 300 301 301 303 300 297 297
229 233 233 231 229 226 223 218 217 220 223 219 221 227 234 243 243 235 244 259 262 263 261 262 264 270 281 283 288 300 302 303 308 307 305 304 304 304 302 294 300 292 297
238 239 238 233 230 229 225 223 221 217 212 213 218 222 232 236 244 254 254 250 257 266 265 265 267 272 278 281 291 291 291 302 303 304 301 301 303 302 301 296 295 292 289
198 204 215 222 223 224 223 219 215 210 207 207 212 222 232 244 252 258 260 261 261 263 268 268 269 277 277 279 286 289 293 295 297 298 298 299 299 296 300 300 296 291 285
154 163 179 190 201 208 207 205 198 197 198 201 210 223 234 242 252 252 257 262 267 270 271 275 278 278 277 277 276 281 284 293 296 294 294 293 292 296 299 299 298 301 296
136 142 147 151 153 164 176 183 188 190 196 204 213 220 226 237 241 250 262 270 271 270 272 279 276 272 270 273 273 271 276 278 280 281 289 291 295 295 294 294 296 302 295
136 139 138 143 149 151 162 178 195 211 221 220 222 231 239 246 253 257 259 261 264 265 271 271 270 265 265 261 258 266 265 268 273 279 283 287 290 293 285 296 302 303 294
135 140 145 148 153 161 170 180 196 225 242 244 254 259 264 262 262 262 264 266 268 270 271 268 267 267 266 266 263 265 266 269 269 276 280 284 283 285 292 293 301 291 287
144 150 151 161 169 176 175 200 233 238 237 253 263 269 269 274 274 273 274 275 274 274 273 273 271 268 267 265 260 258 261 266 272 273 274 275 282 282 283 295 296 292 296
140 149 159 165 183 194 209 232 251 262 275 277 265 273 277 276 277 277 276 275 274 269 268 269 267 267 263 260 261 261 263 268 271 276 274 276 272 270 286 289 283 281 287
159 172 176 202 235 253 256 258 265 270 274 280 290 286 285 282 278 276 272 268 268 267 265 265 265 264 262 261 261 264 266 269 273 271 271 266 258 271 277 280 278 281 283
193 199 234 242 250 258 265 268 273 273 276 278 280 284 292 291 282 278 273 269 266 266 265 262 261 261 261 261 263 264 265 265 263 262 263 260 266 269 270 272 273 276 276
200 212 232 259 261 266 272 275 275 274 275 277 277 283 274 270 268 267 268 262 257 255 257 258 258 258 258 257 255 256 257 258 257 259 259 258 260 260 264 266 268 268 272
259 258 254 261 274 278 278 278 277 277 272 268 271 273 273 272 269 266 263 260 258 257 260 260 259 258 257 256 256 256 256 256 255 254 253 253 254 257 259 259 262 264 266
264 268 273 281 281 280 274 273 273 272 270 271 271 271 269 265 264 263 262 262 260 259 259 258 258 258 258 256 253 251 251 251 251 249 250 250 251 251 252 254 257 259 261
272 275 278 281 283 283 281 279 279 274 274 273 273 272 270 268 266 264 263 262 260 259 258 255 253 253 255 253 250 248 247 247 246 246 246 248 248 249 253 252 252 256 259
269 275 279 282 283 283 282 277 277 276 274 271 270 269 269 267 265 263 262 260 258 256 256 253 252 251 252 252 249 247 247 249 247 245 245 244 245 247 247 248 250 253 255
272 273 273 278 283 283 279 277 275 274 271 270 269 268 267 266 265 264 263 260 258 257 256 255 253 251 251 251 250 251 251 251 249 246 243 238 240 241 243 245 249 250 252